Location: Arcueil
(48.7999°N, 2.3326°E)
Time: 05:26:19
(UTC+00:00)

Meteor PRIRODA - Pass Details

Date: 03 February 2023
Orbit: 473 x 489 km, 97.6° (Epoch: 30 March)

Event Time Altitude Azimuth Distance (km) Brightness Sun altitude
Rises 17:35:24 0° 170° (S) 2,510 7.3 -7.6°
Reaches altitude 10° 17:37:27 10° 173° (S) 1,637 6.4 -8.0°
Maximum altitude 17:40:57 70° 257° (WSW) 509 3.9 -8.5°
Drops below altitude 10° 17:44:30 10° 343° (NNW) 1,655 6.3 -9.1°
Sets 17:46:34 0° 345° (NNW) 2,541 7.2 -9.4°
